Location: Cicognara
(44.9500°N, 10.4667°E)
Time: 08:08:24
(UTC+00:00)

COSMOS 2428 - Pass Details

Date: 20 June 2021
Orbit: 845 x 857 km, 70.9° (Epoch: 04 August)

Event Time Altitude Azimuth Distance (km) Brightness Sun altitude
Exits shadow 21:09:09 - 204° (SSW) 2,952 5.2 -15.4°
Reaches altitude 10° 21:10:23 10° 204° (SSW) 2,481 4.8 -15.5°
Maximum altitude 21:16:07 90° 142° (SE) 864 2.7 -16.0°
Drops below altitude 10° 21:21:53 10° 26° (NNE) 2,501 5.6 -16.5°
Sets 21:24:21 0° 27° (NNE) 3,441 6.4 -16.7°
